Content
SEND FEEDBACK

Daily
Averages
Monthly
Summary
United States of America

LYNDEBOROUGH, NEW HAMPSHIRE


Home > North America > United States > New Hampshire
Elevation: 650 feet     Latitude: 42 53N     Longitude: 071 47W

WEATHER
 
SELECT A DAY
Number of Records: 151,795;   Date Range: 1/1/95 - 9/21/14
 
SHARE

PRINT THIS DATA

[ ← Previous Day ]
WEATHER ALMANAC - JANUARY 31, 2013
[ Next Day → ]
[ °C ]   °F
Weather ElementAverageHighLow
Temperature48.2 °F60.8 °F (5:31 am)29.1 °F (11:51 pm)
Dewpoint37.2 °F57.2 °F (6:07 am)12 °F (10:51 pm)
Humidity67.8 %94 % (7:24 am)36 % (3:51 pm)
Barometer29.70 in30.31 in (11:51 pm)28.97 in (6:07 am)
Wind Speed14.4 mph31.1 mph (9:00 am)
Wind Gust46 mph (9:00 am)
Weather ElementAverage
Visibility7.2 mi
Wind DirectionSSW (206.9 °)

Weather ElementTotal
Precipitation1.26 in
Heating Degree Days20.1 (Base 65)
Averaged from 32 records on January 31, 2013
WEATHER CONDITIONS BREAKOUT
WIND DIRECTION BREAKOUT
WEATHER BY HOUR - JANUARY 31, 2013
[ °C ]   °F
Local TimeTemperatureDewpointHumidityBarometerVisibilityWind DirectionWind SpeedGust SpeedPrecipitationEventsConditions
1:51 AM57.9 °F54.9 °F90 %30.02 in3.0 miSSE (160°)9.2 mph19.6 mph0.01 inRainLight Rain
2:51 AM57.9 °F54.9 °F90 %29.94 in8.0 miSouth (170°)11.5 mph19.6 mph0.03 inRainLight Rain
3:51 AM59.9 °F55.9 °F87 %29.87 in8.0 miSouth (190°)10.4 mph23.0 mph0.03 inRainLight Rain
4:51 AM59.9 °F55.9 °F87 %29.79 in7.0 miSouth (180°)12.7 mph26.5 mph0.00 inRainLight Rain
5:31 AM60.8 °F55.4 °F82 %29.01 in2.5 miSSE (150°)10.4 mph24.2 mph0.09 inRainLight Rain
5:39 AM60.8 °F55.4 °F82 %28.99 in3.0 miSSE (160°)15.0 mph25.3 mph0.12 inRainRain
5:51 AM59.9 °F56.8 °F90 %29.69 in2.5 miSSE (160°)9.2 mph19.6 mph0.17 inRainRain
6:07 AM60.8 °F57.2 °F88 %28.97 in4.0 miSSE (160°)12.7 mph21.9 mph0.02 inRainLight Rain
6:24 AM60.8 °F57.2 °F88 %28.99 in1.8 miSouth (190°)12.7 mph24.2 mph0.06 inRainRain
6:34 AM60.8 °F57.2 °F88 %29.00 in3.0 miSouth (180°)11.5 mph28.8 mph0.08 inRainLight Rain
6:51 AM59.9 °F55.9 °F87 %29.72 in5.0 miVariable6.9 mph0.10 inRainLight Rain
7:24 AM57.2 °F55.4 °F94 %28.98 in10.0 miVariable5.8 mph0.07 inRainLight Rain
7:51 AM56.8 °F54.0 °F90 %29.66 in10.0 miSouth (170°)9.2 mph0.07 inClear
8:51 AM56.8 °F50.9 °F80 %29.65 in10.0 miSouth (180°)10.4 mph19.6 mph0.00 inMostly Cloudy
9:00 AM53.6 °F44.6 °F72 %28.99 in1.2 miWNW (300°)31.1 mph46.0 mph0.08 inRainHeavy Rain
9:03 AM50.0 °F41.0 °F71 %28.99 in0.5 miWNW (300°)23.0 mph46.0 mph0.10 inRainHeavy Rain
9:10 AM46.4 °F39.2 °F76 %28.99 in6.0 miWNW (290°)21.9 mph34.5 mph0.11 inRainLight Rain
9:51 AM43.9 °F36.9 °F76 %29.78 in6.0 miWest (280°)18.4 mph23.0 mph0.11 inRainLight Rain
10:51 AM45.0 °F34.9 °F68 %29.83 in10.0 miWest (280°)18.4 mph25.3 mph0.01 inPartly Cloudy
11:51 AM43.9 °F26.1 °F50 %29.88 in10.0 miWest (270°)15.0 mph39.1 mphClear
12:51 PM45.0 °F23.0 °F42 %29.91 in10.0 miWNW (300°)21.9 mph31.1 mphScattered Clouds
1:51 PM41.9 °F18.1 °F38 %29.96 in10.0 miWNW (290°)23.0 mph31.1 mphScattered Clouds
2:51 PM41.0 °F16.2 °F37 %30.01 in10.0 miWNW (290°)23.0 mph28.8 mphClear
3:51 PM39.9 °F15.1 °F36 %30.06 in10.0 miWNW (290°)13.8 mph20.7 mphScattered Clouds
4:51 PM36.9 °F16.2 °F43 %30.10 in10.0 miWNW (300°)18.4 mph23.0 mphScattered Clouds
5:51 PM36.0 °F16.2 °F45 %30.15 in10.0 miVariable6.9 mphMostly Cloudy
6:51 PM34.0 °F15.1 °F46 %30.19 in10.0 miWest (270°)8.1 mph17.3 mphClear
7:51 PM32.9 °F14.0 °F46 %30.22 in10.0 miWest (280°)18.4 mph27.6 mphPartly Cloudy
8:51 PM32.0 °F15.1 °F50 %30.26 in10.0 miWest (280°)16.1 mph24.2 mphPartly Cloudy
9:51 PM30.0 °F15.1 °F54 %30.29 in10.0 miWest (280°)13.8 mph23.0 mphClear
10:51 PM30.0 °F12.0 °F47 %30.30 in10.0 miWest (270°)13.8 mph20.7 mphClear
11:51 PM29.1 °F13.1 °F51 %30.31 in10.0 miVariable6.9 mphPartly Cloudy
Hourly data recorded from KASH, located miles away from Lyndeborough, New Hampshire







STORIES FROM OUR PARTNERS